89P/Russell 2 (2024)

Japanese version
Home page
Updated on September 4, 2024

---------------------------------------------------------------------

* Profile

* Pictures

* Orbital Elements

Epoch 2024 Mar. 31.0 TT = JDT 2460400.5
T 2024 Mar. 26.60793 TT                                 Rudenko
q   2.2218440            (2000.0)            P               Q
n   0.13563274     Peri.  250.40149     +0.35674807     +0.92392799
a   3.7516850      Node    41.34562     -0.75946119     +0.37295098
e   0.4077744      Incl.   12.07206     -0.54401242     +0.08523285
P   7.27
>From 247 observations 1980 Sept. 28-2024 May 14, mean residual 0".7.
     Nongravitational parameters A1 = +0.83, A2 = -0.0344.

* Finding Charts

* Magnitudes Graph

        m1 = 5.5 + 5 log d + 28 log r(t - 80)

---------------------------------------------------------------------

The orbital elements are published on M.P.E.C. 2024-J304.
The charts are made with StellaNavigator Ver.11 (AstroArts).
The magnitudes graphs are made with Comet for Windows.

---------------------------------------------------------------------

Copyright(C) Seiichi Yoshida (comet@aerith.net). All rights reserved.